Location: Newark
(43.0000°N, 1.6781°W)
Time: 06:33:35
(UTC+00:00)

Tiros 1 despin weight - Visible Passes

Search period start: 20 April 2021 00:00
Search period end: 30 April 2021 00:00
Orbit: 593 x 641 km, 48.2° (Epoch: 19 April)

Date Brightness Start Highest point End Pass type
(mag) Time Alt. Az. Time Alt. Az. Time Alt. Az.
20 Apr ? 03:45:58 10° S 03:48:45 16° SE 03:51:32 10° E visible
21 Apr ? 04:01:07 12° SSW 04:04:46 29° SE 04:08:43 10° E visible
22 Apr ? 02:39:45 10° SE 02:40:07 10° SE 02:41:02 10° ESE visible
22 Apr ? 04:16:48 12° SW 04:20:54 51° SSE 04:25:21 10° ENE visible
23 Apr ? 02:55:22 20° SSE 02:56:04 21° SE 02:59:29 10° E visible
23 Apr ? 04:32:32 10° WSW 04:37:10 84° SSE 04:41:45 10° ENE visible
24 Apr ? 03:10:55 31° S 03:12:07 37° SE 03:16:21 10° ENE visible
25 Apr ? 01:49:22 11° ESE 01:49:22 11° ESE 01:49:51 10° E visible
25 Apr ? 03:26:23 33° SW 03:28:18 64° SSE 03:32:51 10° ENE visible
26 Apr ? 02:04:47 22° ESE 02:04:47 22° ESE 02:07:14 10° E visible
26 Apr ? 03:41:48 24° WSW 03:44:37 82° NNW 03:49:13 10° ENE visible
27 Apr ? 02:20:09 43° ESE 02:20:09 43° ESE 02:23:55 10° ENE visible
27 Apr ? 03:57:11 14° W 04:01:01 59° NNW 04:05:33 10° ENE visible
28 Apr ? 02:35:29 75° S 02:35:43 78° SSE 02:40:20 10° ENE visible
28 Apr ? 04:13:02 10° W 04:17:31 47° N 04:21:58 10° ENE visible
29 Apr ? 01:13:45 16° E 01:13:45 16° E 01:14:52 10° ENE visible
29 Apr ? 02:50:46 46° W 02:52:04 71° NNW 02:56:41 10° ENE visible
29 Apr ? 04:29:38 10° WNW 04:34:04 43° N 04:38:27 10° ENE visible
